Weather in Ol'ginskoe

Russia / Republic of North Ossetia — Alania     43°09′27″N   44°41′20″E
temp.,
°C
wind,
m/s
gust,
m/s
humid.,
%
clouds,
%
prec.,
mm/h
press.,
hPa
HPBL,
m
30 june, thu
thu3000:00+17s128414 0.0 101312
03:00+16s22831 0.0 101312
06:00+19s11751 0.0 101344
09:00+24ne12601 0.0 1013742
12:00+26ne44510 0.0 10111628
15:00+27ne344750 0.0 10101877
18:00+22ne1265100 0.1 101118
21:00+18e367034 0.1 1012144
1 july, fri
fri100:00+16ssw22894 0.2 101226
03:00+16ssw11933 0.7 101112
06:00+16wsw229338 1.2 1011125
09:00+21w227925 2.5 1011605
12:00+23nw116772 0.1 1010998
15:00+23nw126899 2.8 1009577
18:00+19wsw4581100 4.4 101077
21:00+17ssw2392100 5.4 101268
2 july, sat
sat200:00+17w2287100 0.0 101117
03:00+16sw3591100 0.1 1011100
06:00+16wsw4888100 0.1 1013283
09:00+15wsw2487100 0.3 1014274
12:00+15wsw237877 0.0 1015245
15:00+17sw5570100 0.0 1015479
18:00+15sw3883100 0.1 1016308
21:00+14wsw3683100 0.1 1018133
3 july, sun
sun300:00+13sw33805 0.0 101844
03:00+11ssw22780 0.0 101723
06:00+13ssw34760 0.0 101799
09:00+19wnw33550 0.0 10171019
12:00+21wnw45460 0.0 10161715
15:00+23w45422 0.0 10162095
18:00+21w2460100 0.0 1016120
21:00+17wsw2366100 0.0 101852
4 july, mon
mon400:00+15wsw227024 0.0 101818
03:00+14ssw22712 0.0 101813
06:00+15ssw22720 0.0 101863
09:00+21w11510 0.0 1017716
12:00+24nw22430 0.0 10161539
15:00+25wnw22410 0.0 10151881
18:00+23sw23580 0.0 101599
21:00+18ssw226149 0.0 101617